Theta_e
338 338 340 340 342 341 342 341 342 342 342 343 342 342 342 342 341 341 341 340 339 341 339 338 339 339 340 340 341 341 343 340 339 335 334 334 331 332 338 338 335 337 336 335 334 328 326 322 326 334 338 340 341 341 340 339 339 339 340 338 336 337 338
339 338 338 339 338 340 338 339 339 337 338 340 340 339 339 338 338 339 340 338 338 338 337 338 339 339 340 339 339 338 338 338 339 338 337 336 336 333 335 336 336 336 334 333 331 333 327 324 324 326 328 334 337 337 339 341 341 341 340 339 337 337 338
336 336 337 336 337 339 335 336 337 336 336 337 338 337 336 336 335 335 335 336 337 336 336 338 339 339 339 339 339 339 339 338 338 338 335 335 335 334 335 333 331 331 331 332 332 328 328 330 325 324 327 327 327 331 337 337 337 339 340 340 339 339 338
335 336 334 335 334 335 334 334 334 334 334 333 334 335 333 333 334 334 334 335 336 336 336 337 338 337 338 338 338 338 337 337 335 337 336 337 336 334 335 333 332 331 329 327 329 329 329 327 327 325 327 327 326 327 331 336 337 338 337 339 338 338 340
335 334 333 332 332 332 331 331 331 331 330 330 331 330 330 331 332 331 332 333 334 335 334 336 337 336 336 336 336 336 336 336 337 336 336 335 335 333 334 334 333 333 332 332 330 330 328 327 327 325 324 327 327 326 329 332 336 335 338 336 337 338 339
333 332 332 330 330 329 329 328 328 327 327 327 326 326 327 328 328 328 329 329 330 332 333 333 334 335 335 335 335 336 336 335 334 335 333 335 335 333 332 333 333 333 332 332 333 332 330 330 328 325 326 326 324 325 328 329 330 332 334 336 338 338 338
331 331 330 328 327 327 327 327 327 326 325 325 325 325 325 326 326 327 327 326 327 328 329 331 332 333 334 333 334 334 334 335 335 335 334 335 335 335 335 333 333 332 332 333 333 332 330 328 327 325 325 325 327 325 327 327 329 328 330 335 338 339 338
328 328 326 326 326 325 325 325 325 325 325 325 325 325 324 324 324 325 325 325 325 326 327 329 330 331 333 333 333 334 334 334 334 334 334 334 333 334 335 333 332 333 333 332 332 332 331 329 329 328 325 321 322 325 323 326 327 328 327 332 336 337 339
325 326 324 325 325 325 325 324 324 324 324 323 325 323 323 322 322 322 322 323 323 325 326 327 328 329 330 330 330 331 331 333 333 333 332 333 333 334 334 334 332 332 333 332 333 333 332 332 331 330 328 325 321 318 322 322 324 325 330 330 332 337 339
324 324 323 323 324 324 325 324 323 323 323 322 321 322 321 321 321 320 320 321 321 322 322 323 324 325 326 327 328 328 329 330 329 329 329 330 332 333 333 333 332 332 332 333 332 332 332 332 330 331 331 328 327 322 318 318 322 323 327 329 327 333 339
324 324 324 323 324 324 323 322 322 320 319 319 318 319 319 319 319 318 318 319 320 320 320 321 321 322 323 323 325 325 326 327 326 327 328 328 328 329 330 332 333 331 333 333 332 332 332 331 331 332 330 330 329 323 322 318 319 325 326 331 332 330 334
323 323 323 322 323 321 320 319 319 318 318 318 317 317 317 317 317 318 318 318 318 318 319 319 320 320 320 320 321 322 323 323 322 322 325 326 326 326 327 328 330 330 333 332 331 332 333 332 331 333 332 332 330 328 325 322 318 325 330 326 331 333 332
322 321 322 321 320 319 318 318 318 318 317 317 317 317 316 316 316 317 317 317 318 318 318 317 317 318 318 319 319 320 320 320 319 319 320 322 324 325 325 326 327 327 329 330 331 331 331 333 333 332 332 331 331 330 330 324 322 321 329 329 329 330 331
321 321 320 320 320 319 318 318 318 318 317 315 316 316 316 316 315 316 316 316 316 316 316 316 317 318 318 318 318 318 317 316 316 317 317 318 320 322 324 324 324 325 327 327 328 330 330 331 332 332 331 331 329 330 328 326 323 323 328 333 331 329 332
320 319 319 318 318 317 317 316 317 316 316 315 315 314 315 315 315 316 315 315 315 315 315 316 317 317 316 316 317 316 315 314 314 314 315 315 316 318 320 321 323 325 327 325 326 326 328 330 331 331 330 329 330 329 331 325 323 323 324 330 330 332 331
318 317 317 316 315 315 314 315 315 315 314 314 314 314 314 314 314 314 314 314 314 314 314 315 316 315 314 314 313 314 314 313 312 311 312 314 315 315 316 319 321 324 326 326 326 328 329 329 331 331 331 331 328 327 331 330 328 323 323 326 330 328 329
316 315 315 314 313 313 313 313 313 313 313 313 312 313 313 313 313 313 312 312 312 312 313 314 315 314 313 313 313 313 313 313 311 311 311 312 313 314 315 316 319 321 321 321 323 325 327 327 326 329 332 330 328 327 328 332 331 325 324 323 327 327 328
315 314 314 313 312 313 313 313 312 312 312 312 312 312 312 312 312 311 311 311 311 311 312 312 312 312 313 313 313 313 313 313 312 312 311 311 312 312 312 313 314 316 317 317 319 322 324 326 327 327 326 326 326 327 327 327 328 329 324 323 325 328 329
313 313 313 312 312 312 312 312 312 311 311 311 312 312 312 311 311 311 311 311 311 311 311 310 310 310 311 313 312 313 313 312 312 312 312 312 313 313 313 314 314 316 317 317 318 320 320 322 323 325 327 329 330 331 330 328 326 327 328 327 328 324 328
313 313 312 311 311 311 311 311 311 310 311 311 311 311 311 310 311 311 312 312 311 310 309 309 308 308 309 311 311 313 313 313 313 312 311 311 312 312 311 312 312 314 314 314 314 313 315 316 318 321 324 325 325 326 326 326 327 328 328 325 325 326 325
312 311 311 311 310 310 310 310 310 310 310 310 311 311 310 311 312 312 312 312 311 309 307 305 304 304 306 308 311 312 313 313 313 312 311 310 310 310 311 311 311 313 312 311 310 310 311 311 313 316 319 320 320 320 321 323 324 325 325 324 323 324 326
311 311 310 310 309 309 310 310 310 310 310 310 311 311 311 311 311 311 312 312 310 307 304 303 302 300 302 305 312 312 312 312 312 310 309 309 310 312 312 312 311 311 311 311 307 306 305 306 310 312 314 316 318 319 319 320 320 321 321 322 323 324 325
310 310 310 309 309 309 309 310 310 310 310 310 310 311 311 311 311 311 310 310 309 307 303 302 298 295 296 301 308 312 311 310 310 310 309 310 311 312 312 312 312 310 308 307 306 301 300 301 304 309 312 313 312 313 315 316 317 319 319 319 320 320 320
309 308 309 309 309 309 310 310 310 310 310 310 310 310 311 310 310 310 310 309 308 307 303 299 293 292 293 294 303 311 310 309 309 309 309 309 309 310 311 311 311 310 309 307 307 300 299 300 300 300 300 302 306 309 309 309 310 312 312 313 315 317 319
308 308 308 308 308 309 310 310 309 309 309 309 310 310 309 309 309 310 310 309 308 306 304 295 292 293 293 293 296 307 310 309 309 308 308 308 308 308 308 309 310 310 309 307 306 306 305 302 301 301 301 299 297 296 298 305 305 307 308 308 309 312 313
308 308 308 308 309 310 309 308 308 308 308 309 310 309 308 308 308 309 309 308 307 305 302 294 292 292 293 293 293 301 310 309 308 308 308 308 307 307 307 307 308 308 308 307 307 304 306 309 307 305 305 305 299 298 296 296 297 305 307 307 308 309 311
308 308 309 309 309 309 308 307 308 309 309 309 309 308 308 307 307 308 308 308 307 305 301 294 292 292 293 293 292 298 310 309 308 308 307 307 306 306 305 305 306 306 307 307 304 302 304 308 313 314 314 314 314 309 302 300 299 298 302 307 306 306 307
308 308 308 308 308 308 307 307 307 308 308 308 308 307 307 307 306 307 307 307 307 305 300 291 292 292 292 293 292 301 309 309 308 307 306 306 306 305 305 305 306 305 305 305 302 297 300 305 310 310 311 311 311 311 311 309 308 307 306 306 305 305 304
307 307 308 308 307 307 307 307 307 307 307 306 307 306 307 307 306 306 306 306 306 304 302 291 291 292 292 291 294 309 309 308 307 306 305 305 305 304 303 303 303 303 303 302 297 292 294 300 309 308 308 309 309 310 309 306 301 300 305 307 306 305 305
307 307 307 307 306 307 307 307 307 308 307 306 305 305 305 305 305 305 305 306 305 304 302 295 291 291 292 291 299 309 308 307 306 305 304 304 304 304 303 301 300 299 300 299 294 290 292 295 307 306 307 307 308 308 308 309 302 299 297 296 296 295 295
306 306 305 305 306 306 307 307 307 307 306 305 304 305 305 305 305 305 304 304 304 304 302 296 291 291 291 291 296 307 307 306 306 305 305 305 304 303 302 300 300 298 298 298 292 290 291 298 305 305 306 305 305 305 306 308 307 308 300 299 298 297 297
305 305 305 306 306 306 306 306 307 307 306 306 305 305 305 305 305 305 304 303 301 303 303 298 292 291 291 291 297 307 305 305 304 303 303 303 303 303 302 301 299 296 296 294 290 291 291 296 304 303 304 304 302 303 304 307 305 305 306 307 307 307 306
306 305 305 306 306 306 307 306 306 306 306 305 304 304 304 304 304 304 304 303 302 303 303 301 296 291 291 292 291 303 306 303 302 302 302 301 301 302 302 302 300 293 290 291 291 290 291 291 300 302 302 302 300 300 304 306 305 305 306 305 305 305 305
305 306 306 306 306 306 306 305 305 305 304 305 304 304 304 304 304 303 304 304 302 301 302 302 299 290 292 291 291 295 305 303 303 302 301 300 301 301 301 301 301 295 290 291 291 291 291 292 294 302 301 301 301 300 299 305 304 301 305 305 304 304 303
306 306 306 305 305 304 305 305 305 304 304 304 304 304 304 303 303 302 303 303 304 302 300 299 301 294 291 291 291 291 301 303 301 302 300 301 300 301 301 300 300 295 290 291 291 291 291 292 293 302 300 291 291 292 304 304 305 304 304 303 302 301 301
305 306 305 305 304 304 304 305 305 304 304 304 303 303 303 303 302 301 302 302 303 303 302 300 295 299 293 291 291 292 290 296 292 302 301 300 300 300 301 301 300 294 290 291 291 292 292 292 296 298 291 292 293 293 298 303 302 302 300 300 300 299 299
305 305 305 304 304 304 303 304 304 304 303 303 302 302 302 302 302 301 300 300 302 302 302 302 296 294 297 291 292 291 291 291 291 300 301 300 300 299 299 300 297 290 291 291 291 292 293 293 297 291 292 292 294 296 302 301 300 300 298 297 297 298 298
Wind_Speed
3 4 4 3 2 1 2 2 2 2 2 2 2 3 4 4 5 5 5 5 6 6 6 6 7 6 6 6 6 7 7 7 7 8 8 8 8 8 6 7 8 9 10 11 11 10 10 11 10 7 8 9 9 9 10 10 11 11 11 11 11 11 11
5 5 4 3 4 3 2 2 1 1 1 2 3 3 4 5 5 5 5 6 6 6 6 6 6 7 7 8 8 7 7 7 7 7 7 8 8 8 7 8 8 8 8 8 9 8 10 10 12 11 9 6 8 8 9 10 10 10 10 11 11 12 11
5 4 4 4 3 2 3 1 0 1 2 1 3 4 5 5 5 5 5 6 6 6 6 6 7 8 7 7 8 9 8 9 8 8 8 9 9 9 9 9 9 8 8 7 7 8 10 11 12 12 10 12 10 8 7 8 10 11 11 10 11 11 11
5 4 4 4 3 2 0 0 2 2 3 3 3 3 3 5 6 5 5 6 6 6 6 7 6 7 7 7 8 9 9 9 8 10 10 10 9 10 10 9 9 9 9 10 10 7 7 8 10 11 11 12 12 13 10 9 7 8 11 10 11 11 11
4 3 2 2 0 0 1 2 2 1 1 1 2 3 3 5 5 4 5 6 5 5 6 6 6 7 7 7 7 7 8 8 9 9 9 11 11 9 10 9 9 10 10 10 10 9 10 11 10 12 12 11 12 11 10 9 10 9 7 10 12 12 11
4 2 2 2 2 1 1 1 2 1 1 2 2 3 3 5 4 4 5 5 5 5 6 6 7 7 7 7 8 8 9 9 8 9 10 11 11 10 10 10 9 9 10 10 10 10 10 10 11 12 12 12 12 12 10 10 9 9 9 11 12 11 11
3 2 2 2 2 2 1 1 1 2 1 1 2 3 4 5 5 5 5 6 6 6 6 6 7 7 7 7 7 8 9 8 9 10 10 11 11 12 10 10 11 11 10 10 9 9 10 10 11 11 11 11 11 12 10 10 10 10 8 9 11 11 11
3 2 3 2 2 2 2 2 2 2 2 3 3 3 4 4 5 5 6 6 6 6 6 6 6 6 6 6 7 8 7 8 10 10 10 11 11 12 12 11 12 11 10 10 9 10 10 10 11 11 10 11 11 11 11 10 10 10 10 5 9 10 11
4 3 3 2 2 2 2 2 2 2 3 3 3 3 4 4 5 6 5 5 6 7 7 7 8 7 7 7 7 7 8 7 9 11 10 11 12 12 13 12 11 11 11 11 11 10 10 10 10 10 9 9 9 11 11 11 10 9 9 8 10 11 9
5 4 4 3 3 2 2 2 3 3 3 3 3 4 4 5 5 5 5 5 6 6 6 6 7 7 8 7 7 8 8 8 8 10 9 10 11 11 11 13 11 10 11 10 10 10 10 10 10 9 9 10 9 11 11 12 12 10 8 9 9 7 9
5 5 4 4 3 3 3 3 4 4 5 4 4 4 4 5 5 6 5 6 6 7 7 7 7 7 7 7 8 8 8 9 9 8 9 9 10 10 11 11 11 11 10 11 10 10 10 10 10 10 10 10 9 11 11 12 13 10 10 10 9 9 7
5 4 4 4 4 5 5 5 6 6 5 5 5 5 5 6 6 6 6 6 6 7 7 8 8 7 7 6 7 7 8 9 9 10 10 11 10 9 10 12 11 11 12 11 11 11 11 10 10 9 9 9 9 9 10 10 11 11 9 10 9 9 10
5 5 5 5 5 6 6 6 6 6 6 5 5 6 6 6 7 7 7 7 8 8 8 8 7 7 7 7 8 8 8 9 10 10 10 9 9 10 11 11 11 10 11 11 11 11 10 10 9 9 9 9 9 10 9 10 11 13 9 11 11 10 10
5 5 6 6 6 7 7 7 6 6 6 6 6 6 6 7 7 7 8 8 8 8 8 8 7 7 7 8 8 8 9 9 9 10 10 11 10 11 11 11 11 11 11 12 11 12 11 11 10 9 10 9 9 9 9 9 11 13 12 9 10 10 10
6 6 7 7 7 7 8 7 7 6 6 6 7 7 8 7 7 8 8 8 8 8 8 8 8 8 8 9 9 8 8 10 10 10 10 10 10 9 10 11 12 12 11 12 12 13 13 12 10 9 11 11 10 9 8 7 11 11 15 10 10 8 9
7 7 8 7 9 8 8 7 7 7 7 7 7 7 7 8 8 8 8 8 8 8 9 8 8 8 8 9 9 9 9 9 10 10 10 10 10 10 10 10 11 10 9 12 13 12 12 12 11 10 11 9 10 12 10 10 9 10 13 13 10 10 9
8 7 8 8 9 8 7 7 7 7 7 7 7 7 7 8 8 8 7 8 8 8 9 9 9 9 9 9 9 9 9 9 9 10 10 10 10 10 10 10 10 11 11 11 12 12 12 11 11 11 9 9 9 11 11 10 10 9 11 13 10 10 9
8 8 8 8 9 8 8 8 8 8 8 7 7 7 7 7 8 8 8 8 8 9 9 9 10 10 10 9 9 9 9 9 9 9 9 9 10 10 10 10 11 11 11 11 11 11 11 14 12 11 11 11 11 10 9 11 11 9 10 11 12 11 10
8 8 8 8 8 8 8 8 8 8 8 8 7 8 8 7 7 8 8 8 8 9 9 9 10 11 11 10 9 9 8 9 9 9 9 10 10 10 10 11 11 11 11 10 10 11 11 13 12 12 13 11 10 9 9 9 9 11 11 12 10 10 9
8 7 7 7 7 8 8 9 8 8 7 8 8 8 8 8 8 8 9 9 9 9 10 10 11 12 11 10 10 9 9 9 9 8 9 9 9 9 9 9 9 10 10 11 12 12 12 13 10 12 13 13 12 12 12 12 10 11 11 11 10 10 11
8 7 7 7 8 8 8 8 8 8 7 8 9 9 8 9 8 8 9 9 10 9 10 11 12 12 12 10 9 9 8 9 9 8 9 9 9 10 10 9 9 10 10 10 11 12 12 10 10 10 10 9 10 10 10 11 11 11 10 9 9 9 8
7 7 7 7 8 8 8 8 8 8 8 8 8 9 9 9 9 9 10 10 10 10 10 11 10 11 11 11 9 8 9 9 10 10 10 10 9 10 10 10 10 10 12 14 12 10 11 10 7 9 10 9 9 8 8 8 9 11 10 10 10 9 9
7 7 7 7 8 8 8 8 9 9 9 9 9 8 9 8 9 10 10 11 10 10 10 10 15 19 14 10 9 7 7 9 10 10 11 11 11 11 11 11 10 16 13 16 16 16 17 18 14 6 7 7 8 8 8 8 8 8 9 11 12 11 11
7 7 7 7 7 8 9 8 8 8 9 9 9 9 9 9 9 9 11 11 12 11 10 11 18 15 16 16 11 8 8 9 10 10 11 12 12 12 12 12 12 14 16 18 17 16 16 18 16 9 5 4 6 7 8 8 8 8 7 8 9 10 11
7 7 7 7 8 8 8 8 8 9 8 9 9 9 9 9 9 9 9 11 12 12 11 17 17 16 15 16 13 8 8 9 10 10 11 12 12 12 13 13 12 11 12 15 15 15 16 16 16 8 5 4 5 7 6 7 8 8 8 8 8 9 9
7 7 7 7 7 7 8 8 9 9 9 9 9 9 9 10 9 9 10 11 12 12 11 17 16 15 14 15 15 11 9 10 10 11 12 13 14 14 13 13 12 11 11 17 15 15 14 14 14 9 5 3 9 8 7 4 5 7 9 9 9 10 9
8 7 7 7 8 8 9 9 8 8 8 8 8 9 9 10 10 10 10 10 12 11 13 15 15 16 15 15 14 9 11 11 11 12 13 14 14 15 15 14 12 12 14 14 15 17 16 15 13 12 10 10 9 4 4 7 9 9 9 8 9 9 10
8 8 8 8 8 9 9 9 9 8 8 8 8 8 8 9 9 10 10 10 11 12 11 17 17 17 17 17 15 7 10 10 10 11 12 13 14 15 15 14 14 13 14 14 15 18 16 15 13 11 11 11 10 10 10 10 11 11 11 9 9 10 10
8 8 9 9 9 10 9 9 9 8 8 8 8 8 10 10 10 10 10 10 10 12 12 18 18 18 18 19 16 9 10 10 11 11 12 12 13 14 15 15 13 13 14 14 19 23 20 15 12 12 12 11 11 10 10 9 7 5 6 7 8 9 8
9 9 9 9 9 9 9 9 9 8 7 7 7 8 9 9 9 10 11 10 10 11 12 17 18 18 19 20 13 9 9 10 10 11 12 11 11 12 14 16 14 12 13 14 19 22 22 21 9 12 12 11 10 10 11 11 11 7 8 8 8 10 10
9 9 9 9 9 9 8 8 8 6 7 7 8 8 8 8 9 10 11 12 11 11 11 15 17 18 19 20 17 9 9 9 10 10 10 11 10 11 12 15 17 13 13 14 19 20 21 18 11 12 12 12 11 11 11 12 11 10 11 9 10 12 10
9 9 9 9 9 9 9 8 7 6 6 7 8 8 8 9 9 9 10 11 12 11 11 13 16 16 17 18 15 8 9 9 10 10 10 11 11 11 11 12 14 15 14 15 18 19 20 17 12 13 12 11 11 12 11 13 13 14 14 14 14 14 13
9 10 10 9 9 9 7 6 7 7 7 7 8 8 8 9 10 9 9 11 11 11 10 12 14 16 17 18 19 11 10 9 10 10 10 11 11 11 12 12 12 17 18 16 15 17 18 18 13 13 12 11 12 12 13 11 13 13 13 14 14 14 14
10 10 8 8 7 7 7 7 7 8 8 8 8 8 8 8 9 9 9 9 11 12 11 11 13 15 15 16 19 16 11 11 10 10 10 11 11 11 11 12 10 15 17 16 16 16 17 16 15 14 12 11 9 10 11 10 12 14 13 14 14 14 13
9 8 7 8 8 8 7 8 7 8 8 8 9 9 8 8 8 8 8 9 9 10 12 13 11 13 14 14 15 16 10 9 10 9 10 11 11 11 12 11 10 12 15 16 16 15 16 15 15 14 13 13 13 12 12 11 11 11 12 12 12 14 14
9 7 7 8 9 9 8 8 8 8 8 8 9 9 9 8 8 8 8 8 8 8 9 10 11 11 12 12 13 13 13 11 14 9 9 10 10 10 9 9 10 14 15 15 14 14 16 15 14 13 16 16 13 14 12 11 12 11 12 12 13 14 15
9 8 8 8 9 9 8 8 8 7 7 7 7 7 7 7 7 7 7 7 8 8 8 8 9 8 9 9 10 10 11 11 12 8 9 9 9 9 9 9 9 13 13 14 13 11 14 14 11 14 14 15 16 14 13 13 13 13 12 13 15 14 14
Wind_Direction
140 115 121 98 92 110 133 115 126 103 64 61 41 19 352 345 339 322 318 314 310 305 306 297 292 293 296 294 295 289 281 280 276 275 283 285 280 280 265 266 257 255 257 259 263 274 280 286 281 253 242 237 232 233 233 233 229 226 227 226 229 224 219
119 128 131 135 138 131 115 97 64 46 60 356 340 342 335 335 321 320 317 307 307 307 301 289 289 298 299 298 294 288 287 287 287 286 277 276 274 276 283 272 270 274 272 263 268 263 268 278 278 281 281 242 238 243 237 237 236 233 229 226 224 225 224
136 140 150 142 146 169 150 124 166 349 331 350 347 359 344 324 323 325 313 312 307 305 302 300 301 291 288 289 292 295 300 296 289 284 280 281 277 276 272 283 283 280 269 265 258 263 260 254 273 282 283 288 274 256 240 233 236 237 232 228 226 223 222
142 144 157 165 157 187 252 354 313 335 324 353 338 3 10 337 327 324 324 314 309 302 297 297 294 300 300 296 294 291 286 287 290 291 287 278 279 280 280 278 278 275 277 279 275 261 264 273 272 271 278 276 280 283 265 252 236 245 247 233 230 226 223
141 154 133 106 359 288 358 313 316 299 357 349 346 336 354 340 330 329 320 309 303 306 303 305 301 296 296 296 291 288 290 289 286 282 282 284 281 279 274 272 271 276 275 271 276 272 269 272 272 276 280 287 286 279 282 270 261 246 243 258 237 228 225
41 38 53 58 2 334 354 16 324 343 6 358 8 335 352 338 333 332 330 325 318 310 311 307 301 302 301 295 291 291 289 289 288 288 284 284 286 281 282 280 274 272 269 272 273 274 277 278 278 281 280 286 287 291 289 284 265 256 231 240 240 232 227
82 41 50 62 49 28 36 39 13 15 15 10 358 343 350 337 339 335 328 323 316 309 303 300 298 299 301 295 293 292 292 291 289 285 283 284 283 284 284 281 279 274 277 276 273 276 280 280 280 280 287 289 287 287 288 280 275 270 241 232 238 237 228
90 88 65 59 57 51 41 54 33 21 1 353 7 359 351 342 337 335 334 325 327 318 315 309 303 303 303 307 303 305 304 296 293 291 287 287 285 287 284 283 284 283 275 274 270 272 272 275 279 284 288 291 290 285 287 284 284 263 266 271 279 239 226
95 101 107 83 70 49 48 37 54 29 13 349 17 357 1 348 342 339 334 336 335 335 333 332 329 321 322 313 307 304 302 303 300 300 298 293 288 286 284 283 279 275 278 281 282 278 276 271 268 271 273 274 279 287 285 286 286 282 266 257 243 249 236
92 86 84 82 73 66 49 37 29 38 31 26 18 12 357 358 354 354 345 343 346 343 343 342 335 331 328 319 315 315 308 311 308 303 299 293 293 294 290 285 283 282 281 280 276 275 275 274 272 269 266 263 266 272 281 284 286 289 285 271 274 242 224
93 84 74 66 55 54 52 57 55 53 41 36 30 20 12 12 10 9 359 357 354 352 351 347 345 339 337 324 325 317 314 312 308 303 299 299 295 294 295 292 285 282 277 276 277 275 273 271 273 273 271 268 262 265 270 275 279 284 284 280 273 277 261
78 72 71 67 64 67 65 61 57 51 48 41 36 30 26 23 19 14 14 9 5 5 3 2 356 356 349 341 333 323 324 322 314 307 305 303 301 294 287 290 298 297 293 288 280 273 271 277 272 268 268 265 260 256 260 252 266 271 268 279 280 278 278
66 65 64 65 69 66 62 59 58 57 49 43 38 34 34 28 22 19 18 13 11 10 7 5 358 353 350 347 342 336 332 325 318 312 308 307 306 302 297 290 290 298 303 301 292 287 289 283 276 267 261 262 264 264 262 265 266 272 273 275 280 278 268
63 66 65 67 69 65 60 53 50 47 48 42 35 37 37 33 28 24 21 20 17 12 5 3 356 351 348 345 338 331 324 322 316 314 312 309 305 300 296 294 294 293 294 294 295 297 293 288 280 278 273 261 265 266 264 264 263 269 272 264 274 279 281
62 61 64 61 64 60 54 50 45 43 47 43 39 37 37 35 29 28 27 22 17 12 6 2 357 352 347 340 337 335 329 325 321 318 317 313 311 309 307 302 299 299 303 296 293 292 295 297 288 278 283 286 268 257 252 268 265 271 279 281 269 270 268
66 65 63 61 58 56 56 51 47 45 41 42 40 37 36 36 34 30 27 22 17 11 6 1 355 352 347 342 339 337 332 329 324 320 320 322 321 317 309 304 303 306 308 309 307 301 297 290 287 289 283 274 273 270 260 256 276 280 276 272 276 280 276
67 62 61 58 57 57 58 55 50 50 48 44 44 40 39 36 36 32 26 21 19 13 9 4 357 354 350 344 341 338 337 335 329 325 323 323 324 323 320 315 313 319 320 314 308 305 300 298 297 287 276 272 271 277 275 269 254 259 280 283 280 280 279
67 63 61 59 59 60 59 59 54 49 48 49 46 45 46 40 37 36 29 25 23 18 13 6 359 355 352 348 344 342 340 339 336 333 332 328 325 322 318 315 314 314 314 310 306 306 315 323 318 315 305 299 293 295 298 288 278 264 269 276 280 274 274
67 62 59 61 61 60 60 58 59 56 51 52 51 49 47 43 37 37 35 33 29 23 16 9 1 354 350 349 348 342 343 344 341 339 337 336 335 334 330 326 324 323 322 322 324 329 326 322 318 312 308 302 297 291 285 277 275 277 276 275 277 283 273
65 64 61 62 64 63 61 61 60 58 55 51 51 51 48 49 44 40 41 37 33 22 16 10 2 355 349 349 347 347 350 352 352 355 351 350 351 350 347 343 340 340 341 343 342 335 332 329 325 317 312 318 316 313 306 302 296 287 282 278 275 270 275
67 66 67 67 67 65 66 64 63 62 59 55 53 51 47 46 46 44 41 39 32 25 16 12 6 356 347 341 342 354 359 1 5 7 6 1 357 355 355 355 349 349 350 350 342 335 336 331 324 320 324 322 320 315 309 306 304 298 294 286 280 282 271
71 72 71 70 69 69 69 68 68 67 64 62 55 51 50 46 44 43 42 39 34 29 22 13 6 352 346 339 335 1 2 6 7 6 6 5 4 4 3 0 358 354 347 346 336 337 330 316 309 321 328 326 320 314 306 301 300 299 294 290 286 281 279
76 74 75 74 73 74 75 76 74 70 65 59 56 52 51 48 43 42 41 37 36 30 23 15 353 343 340 337 328 7 6 11 9 9 6 5 6 5 6 3 357 356 350 350 349 351 342 331 324 318 338 350 353 339 329 318 308 310 308 298 294 294 286
80 78 78 78 78 80 80 77 70 66 63 59 55 52 48 47 45 43 42 39 33 29 24 7 347 344 341 338 334 3 18 15 15 15 14 10 6 3 4 4 1 1 359 358 354 350 339 327 319 314 11 44 35 19 354 338 332 324 314 311 311 307 301
87 87 85 83 84 83 79 75 71 65 62 60 56 53 51 47 46 45 44 42 37 29 24 8 347 348 343 339 336 341 29 23 23 24 20 18 16 10 8 9 8 7 5 0 356 350 346 326 311 304 310 158 108 105 54 12 340 331 331 317 310 308 306
92 92 89 90 88 84 77 73 69 68 65 61 59 55 51 48 45 43 44 43 38 31 24 7 348 348 345 340 334 334 42 32 31 34 28 26 23 20 17 15 12 6 0 2 0 352 343 335 330 335 297 289 150 111 79 41 340 331 324 314 318 313 319
97 94 92 88 85 80 77 74 72 69 68 64 59 58 55 50 46 44 42 42 39 33 25 360 353 352 350 342 335 336 45 36 36 35 31 29 27 23 20 19 10 6 3 4 2 351 341 338 347 348 352 354 352 22 63 44 14 357 349 333 327 320 325
98 94 90 88 85 82 77 75 70 68 67 63 61 58 56 54 49 45 45 43 41 36 29 5 2 356 350 345 330 11 40 39 38 35 33 28 28 24 18 14 10 6 2 2 1 344 339 337 352 353 354 356 359 358 359 1 354 352 352 345 341 334 330
99 97 95 90 87 82 79 76 75 71 67 64 62 63 53 52 53 50 45 45 43 37 29 14 2 359 352 350 329 40 38 42 41 38 33 29 26 27 22 14 9 5 2 3 352 342 339 330 347 0 2 358 1 1 2 10 337 287 332 331 337 330 321
100 98 95 91 85 82 80 79 78 81 81 76 74 69 66 59 55 51 47 46 44 40 34 16 6 3 356 356 343 42 37 38 37 34 34 28 25 25 23 19 15 4 1 2 349 342 345 335 353 355 3 358 1 0 3 3 357 336 346 318 292 306 286
100 97 93 88 86 84 83 83 81 74 75 78 72 70 73 71 64 58 50 49 44 45 40 25 13 7 2 359 344 27 29 35 31 25 27 26 21 19 20 28 15 10 2 358 347 348 351 343 3 360 355 355 359 358 354 360 1 356 358 348 357 340 331
99 95 93 89 86 88 84 82 84 85 85 82 76 74 69 68 70 65 60 53 28 38 45 34 19 11 9 5 357 17 28 33 27 25 21 21 23 20 20 29 21 8 357 346 345 352 353 354 1 9 356 356 355 357 351 348 2 356 359 1 2 359 359
98 96 93 93 91 86 84 82 77 76 76 76 76 75 73 70 68 66 65 59 51 38 41 44 28 14 17 11 3 1 45 32 32 32 30 29 26 28 28 25 22 7 349 344 346 355 357 355 357 19 9 7 355 350 331 344 8 355 4 4 4 4 3
97 95 94 92 92 87 83 82 81 80 79 75 78 77 75 75 72 70 63 63 62 54 38 39 45 24 21 18 12 3 54 39 42 42 39 35 35 33 31 28 23 1 343 343 351 357 359 357 355 20 12 9 347 309 309 7 5 2 6 5 9 9 6
100 98 97 96 93 88 83 82 81 81 80 82 79 76 73 71 70 68 69 61 60 67 59 38 38 40 25 23 23 14 25 31 351 43 36 40 35 37 33 29 22 351 342 350 352 356 2 357 1 20 350 332 321 340 10 17 13 9 12 7 7 9 8
103 100 97 94 91 91 91 88 88 86 88 86 81 79 73 71 70 67 64 57 57 56 60 62 34 40 38 25 25 22 15 11 342 24 39 43 36 35 35 26 18 348 344 343 346 353 4 359 12 3 347 351 359 11 24 28 21 18 14 10 6 8 9
106 103 99 94 89 86 83 82 78 76 76 75 76 72 71 70 67 65 59 60 54 49 47 51 66 39 40 36 27 23 16 7 360 15 41 44 42 36 32 22 351 328 336 338 333 345 9 8 359 347 356 8 15 19 25 29 29 26 21 16 14 12 11